This demonstration page uses our WeatherBlox Daily Observations layout. Learn more.

Left ArrowRight Arrow

41.86663, -103.66717

Hourly Observations for April 11, 2017

Temp ( °F °C ) Dew Point ( °F °C ) Humidity (%) Winds ( mph kmh ) Pressure ( in mb ) Visibility ( mi km ) Precip ( " mm )
12:53 am 00:53 Clear 32 undefined 26 -3.3 79 79 ESE 8 13 30.16 1022 10 16.0934 N/A
1:53 am 01:53 Clear 31 -0.6 25 -3.9 79 79 undefined N/A 30.16 1022 10 16.0934 N/A
2:53 am 02:53 Clear 33 0.6 26 -3.3 75 75 E 10 17 30.15 1021 10 16.0934 N/A
3:53 am 03:53 Clear 33 0.6 26 -3.3 75 75 E 9 15 30.14 1021 10 16.0934 N/A
4:53 am 04:53 Clear 32 undefined 26 -3.3 79 79 E 8 13 30.14 1021 10 16.0934 N/A
5:53 am 05:53 Clear 30 -1.1 25 -3.9 82 82 ESE 7 11 30.14 1021 10 16.0934 N/A
6:53 am 06:53 Sunny 29 -1.7 24 -4.4 82 82 E 7 11 30.16 1021 10 16.0934 N/A
7:53 am 07:53 Sunny 38 3.3 29 -1.7 70 70 ESE 7 11 30.18 1022 10 16.0934 N/A
8:53 am 08:53 Sunny 44 6.7 27 -2.8 51 51 N N/A 30.18 1022 10 16.0934 N/A
9:53 am 09:53 Sunny 52 11.1 26 -3.3 37 37 VRB 5 7 30.16 1021 10 16.0934 N/A
10:53 am 10:53 Sunny 57 13.9 25 -3.9 29 29 NNW 7 11 30.14 1021 10 16.0934 N/A
11:53 am 11:53 Sunny 60 15.6 22 -5.6 23 23 NNW 7 11 30.11 1020 10 16.0934 N/A
12:53 pm 12:53 Sunny 64 17.8 21 -6.1 19 19 N 9 15 30.08 1019 10 16.0934 N/A
1:53 pm 13:53 Sunny 66 18.9 21 -6.1 18 18 VRB 3 6 30.06 1018 10 16.0934 N/A
2:53 pm 14:53 Sunny 66 18.9 20 -6.7 17 17 N N/A 30.03 1017 10 16.0934 N/A
3:53 pm 15:53 Sunny 68 20 18 -7.8 15 15 E 3 6 30 1016 10 16.0934 N/A
4:53 pm 16:53 Sunny 68 20 21 -6.1 17 17 SE 13 20 29.99 1016 10 16.0934 N/A
5:53 pm 17:53 Sunny 67 19.4 21 -6.1 17 17 ESE 16 26 30 1016 10 16.0934 N/A
6:53 pm 18:53 Sunny 63 17.2 22 -5.6 21 21 E 14 22 30.02 1017 10 16.0934 N/A
7:53 pm 19:53 Clear 56 13.3 24 -4.4 29 29 ESE 12 19 30.02 1017 10 16.0934 N/A
8:53 pm 20:53 Clear 53 11.7 25 -3.9 34 34 ESE 9 15 30.03 1017 10 16.0934 N/A
9:53 pm 21:53 Clear 50 10 25 -3.9 38 38 ENE 10 17 30.02 1017 10 16.0934 N/A
10:53 pm 22:53 Clear 48 8.9 25 -3.9 41 41 ENE 10 17 30 1016 10 16.0934 N/A
11:53 pm 23:53 Clear 47 8.3 25 -3.9 42 42 ENE 12 19 29.99 1016 10 16.0934 N/A

Powered by AerisWeather